Regional Weather Roundup
Issued by NWS

Home | Current Version | Previous Version | Text Only | Print | Product List | Glossary On
Versions: 1 2 3 4 5 6 7 8 9 10 11 12 13 14 15 16 17 18 19 20 21 22 23 24 25 26 27 28 29 30 31 32 33 34 35 36 37 38 39 40 41 42 43 44 45 46 47 48 49 50
000
ASUS43 KTOP 230808
RWRKS

WEATHER ROUNDUP FOR KANSAS
NATIONAL WEATHER SERVICE GOODLAND KS
300 AM CDT SAT JUL 23 2016

NOTE:  "FAIR" INDICATES FEW OR NO CLOUDS BELOW 12,000 FEET WITH NO
SIGNIFICANT WEATHER AND/OR OBSTRUCTIONS TO VISIBILITY.

KSZ001>006-013>018-027>032-041>047-230900-
NORTHWEST KANSAS

CITY           SKY/WX    TMP DP  RH WIND       PRES   REMARKS
GOODLAND       CLOUDY    71  65  81 E8        29.99S
HAYS           CLOUDY    82  57  42 S12       29.92S
HILL CITY      CLOUDY    80  68  66 N16G25    29.98R
RUSSELL        CLOUDY    84  61  45 S10       29.91R
$$

KSZ061>065-074>080-084>089-230900-
SOUTHWEST KANSAS

CITY           SKY/WX    TMP DP  RH WIND       PRES   REMARKS
DODGE CITY     CLEAR     75  60  59 S9        29.97S
ELKHART          N/A     79  54  42 S9          N/A
GARDEN CITY    CLEAR     72  61  68 SE7       29.96F
GREAT BEND     CLOUDY    84  61  45 S17       29.93S
LIBERAL        CLEAR     73  55  53 S12       29.99F
PRATT          CLEAR     78  59  52 S12       29.97R
$$

KSZ066>073-081>083-090>101-230900-
SOUTHEAST KANSAS

CITY           SKY/WX    TMP DP  RH WIND       PRES   REMARKS
CHANUTE        CLEAR     76  72  87 SE6       29.96F
COFFEYVILLE    CLEAR     77  70  79 CALM      29.96S
HUTCHINSON     CLEAR     79  64  60 S7        29.94S
MEDICINE LODGE   N/A     79  63  57 S7        29.95S
NEWTON         CLEAR     78  32  18 S8        29.97R
PARSONS        CLEAR     76  72  87 CALM      29.97F
WICHITA INTL   PTCLDY    81  67  62 S10       29.94S
WICHITA JABRA  CLEAR     79  69  71 S8        29.95S
WICHITA MCCONL CLEAR     81  68  65 S10       29.95S
WINFIELD       PTCLDY    78  69  73 S8        29.96S
$$

KSZ007>012-019>026-033>040-048>060-102>105-230900-
NORTHEAST KANSAS

CITY           SKY/WX    TMP DP  RH WIND       PRES   REMARKS
CONCORDIA      CLOUDY    81  68  64 S14       29.90S
EMPORIA        CLEAR     77  70  79 SE8       29.96S
LAWRENCE       CLOUDY    78  72  81 SE3       29.95S
MANHATTAN      CLOUDY    85  69  58 S7        29.92R
MARYSVILLE     PTCLDY    82  70  65 S10       29.92R
OLATHE IND     CLOUDY    77  72  84 S5        29.98S
OLATHE EXE     PTCLDY    79  73  82 SE3       29.98S
SALINA         PTCLDY    84  66  54 S12       29.91R
TOPEKA BILLARD CLOUDY    82  70  66 SE6       29.93F
TOPEKA FORBES  CLOUDY    83  71  67 SE8       29.94F
$$




USA.gov is the U.S. government's official web portal to all federal, state and local government web resources and services.